Location: Observatoire
(46.1952°N, 5.3391°E)
Time: 01:26:14
(UTC+02:00)

QB50P2 - Visible Passes

Search period start: 24 April 2024 00:00
Search period end: 04 May 2024 00:00
Orbit: 568 x 581 km, 98.0° (Epoch: 23 April)

Date Brightness Start Highest point End Pass type
(mag) Time Alt. Az. Time Alt. Az. Time Alt. Az.
24 Apr ? 02:56:05 10° E 02:56:29 10° E 02:56:53 10° E visible
24 Apr ? 04:28:04 10° N 04:32:12 78° WNW 04:33:28 43° SSW visible
25 Apr ? 02:58:37 10° ENE 02:59:48 11° E 03:00:38 10° E visible
25 Apr ? 04:31:20 10° N 04:35:27 73° WNW 04:36:52 39° SSW visible
26 Apr ? 03:01:28 10° ENE 03:03:04 12° E 03:04:01 11° ESE visible
26 Apr ? 04:34:35 10° N 04:38:41 67° WNW 04:40:14 36° SW visible
27 Apr ? 03:04:24 10° ENE 03:06:18 13° E 03:07:21 12° ESE visible
27 Apr ? 04:37:48 10° N 04:41:53 62° WNW 04:43:35 33° SW visible
28 Apr ? 03:07:21 10° ENE 03:09:31 14° E 03:10:40 13° ESE visible
28 Apr ? 04:41:00 10° N 04:45:04 57° WNW 04:46:53 30° SW visible
29 Apr ? 03:10:19 10° NE 03:12:43 15° E 03:13:57 13° ESE visible
29 Apr ? 04:44:11 10° N 04:48:12 53° WNW 04:50:10 27° SW visible
30 Apr ? 03:13:17 10° NE 03:15:52 16° E 03:17:12 14° ESE visible
30 Apr ? 04:47:19 10° N 04:51:19 49° WNW 04:53:25 25° SW visible
01 May ? 03:16:15 10° NE 03:18:59 17° E 03:20:26 15° ESE visible
01 May ? 04:50:27 10° N 04:54:24 46° WNW 04:56:39 23° SW visible
02 May ? 03:19:12 10° NE 03:22:05 18° E 03:23:37 15° ESE visible
02 May ? 04:53:33 10° N 04:57:28 43° WNW 04:59:50 21° SW visible
03 May ? 03:22:08 10° NE 03:25:10 20° E 03:26:48 16° ESE visible
03 May ? 04:56:37 10° N 05:00:29 40° WNW 05:02:59 19° SW visible
